Inquirer Daily News

Weather

Get conditions and forecasts for any City, State, ZIP code or Country:  
Trenton, NJ
on Friday, December 14, 2012

Friday
Previous Day Next Day
Daily Summary
 ActualAverageRecord
Temperature
Mean Temperature °F 36°F  
Max Temperature 50°F 43°F 67°F (1901)
Min Temperature 24°F 28°F 8°F (2005)
Degree Days
Heating Degree Days 28 29  
Month to date heating degree days 295 379  
Since 1 July heating degree days 1302 1355  
Cooling Degree Days 0 0  
Month to date cooling degree days 0 0  
Year to date cooling degree days 1234 965  
Moisture
Dew Point 24°F   
Average Humidity 63    
Maximum Humidity 92    
Minimum Humidity 34    
Precipitation
Precipitation 0.00 in 0.13 in 1.78 in (1897)
Month to date precipitation 0.83 1.92  
Year to date precipitation 34.06 44.66  
Wind
Wind Speed 4 mph   
Max Wind Speed 14 mph   
Max Gust Speed 18 mph   
Visibility 10 miles   
Events     

Key: T is trace of precipitation, MM is missing value
Source: NWS Daily Summary
Time(EST)TemperatureDew PointHumidity Pressure Visibility Wind DirectionWind SpeedGust SpeedPrecipitationEvents Conditions
12:53 AM 28.0°F 23.0°F 81% 30.31 in 10.0 miles North 3.5 mph - N/A   Clear
1:53 AM 28.9°F 21.9°F 75% 30.30 in 10.0 miles Calm Calm - N/A   Clear
2:53 AM 26.1°F 23.0°F 88% 30.30 in 9.0 miles Calm Calm - N/A   Clear
3:53 AM 26.1°F 21.0°F 81% 30.28 in 9.0 miles Calm Calm - N/A   Clear
4:53 AM 25.0°F 21.0°F 85% 30.27 in 9.0 miles Calm Calm - N/A   Clear
5:53 AM 26.1°F 21.9°F 84% 30.28 in 9.0 miles Calm Calm - N/A   Clear
6:53 AM 25.0°F 21.0°F 85% 30.28 in 8.0 miles Calm Calm - N/A   Clear
7:53 AM 25.0°F 23.0°F 92% 30.28 in 6.0 miles Calm Calm - N/A   Clear
8:53 AM 30.9°F 25.0°F 79% 30.28 in 8.0 miles SW 3.5 mph - N/A   Clear
9:53 AM 37.0°F 27.0°F 67% 30.27 in 9.0 miles SW 4.6 mph - N/A   Clear
10:53 AM 44.1°F 25.0°F 47% 30.25 in 10.0 miles West 10.4 mph - N/A   Clear
11:53 AM 46.0°F 25.0°F 44% 30.22 in 10.0 miles West 8.1 mph - N/A   Clear
12:53 PM 48.0°F 24.1°F 39% 30.19 in 10.0 miles West 11.5 mph - N/A   Clear
1:53 PM 48.9°F 24.1°F 38% 30.17 in 10.0 miles WNW 8.1 mph - N/A   Clear
2:53 PM 50.0°F 25.0°F 38% 30.17 in 10.0 miles WNW 5.8 mph - N/A   Clear
3:53 PM 48.9°F 21.9°F 35% 30.17 in 10.0 miles WNW 8.1 mph - N/A   Clear
4:53 PM 46.0°F 21.9°F 39% 30.18 in 10.0 miles WNW 6.9 mph - N/A   Clear
5:53 PM 44.1°F 24.1°F 45% 30.19 in 10.0 miles WNW 4.6 mph - N/A   Clear
6:53 PM 42.1°F 24.1°F 49% 30.20 in 10.0 miles Calm Calm - N/A   Clear
7:53 PM 41.0°F 25.0°F 53% 30.22 in 10.0 miles NW 5.8 mph - N/A   Clear
8:53 PM 39.0°F 25.0°F 57% 30.22 in 10.0 miles NW 3.5 mph - N/A   Clear
9:53 PM 37.0°F 25.0°F 62% 30.22 in 10.0 miles NNW 4.6 mph - N/A   Clear
10:53 PM 34.0°F 25.0°F 70% 30.23 in 10.0 miles SW 3.5 mph - N/A   Clear
11:53 PM 33.1°F 25.0°F 72% 30.24 in 10.0 miles NNW 3.5 mph - N/A   Clear
Astronomy
Sunrise:07:14 AM (EST) Moon Rise:08:16 AM (EST)12/14
Sunset:04:33 PM (EST) Moon Set:06:23 PM (EST)12/14
Moon Phase
Dec. 14 Dec. 20 Dec. 28 Jan. 04 Jan. 11

Copyright © 2014 The Weather Underground, Inc.